ENT7103 DTTJ-GVBA

Flight info

Callsign ENT7103
Flight time N/A
Altitude 40000
Route MAZRA DCT CSO/N0450F400 UA31 BABOR UZ888 ORSUP UA411 OJD/N0457F410 UG664 OLMAG UG664 ADM UA600 SOLNA L660 ARENA/N0460F400 L660 MAURI DCT PINPO
Aircraft B38M/M-SDE1FGHILORVWXY/HB1

Departure

Time N/A
Airport Djerba Zarzis International Airport (DTTJ)

Arrival

Time 2026-05-01 12:47
Airport Aristides Pereira International Airport (GVBA)
Time Latitude Longitude Altitude Speed Heading
2026-05-01 07:23 35.79521 7.40007 38115 ft 415 kts 306°
2026-05-01 07:24 35.84870 7.31591 38121 ft 415 kts 306°
2026-05-01 07:24 35.88428 7.25982 38118 ft 415 kts 306°
2026-05-01 07:25 35.91985 7.20364 38118 ft 415 kts 305°
2026-05-01 07:25 35.95541 7.14740 38112 ft 415 kts 305°
2026-05-01 07:26 35.99093 7.09112 38119 ft 415 kts 305°
2026-05-01 07:26 36.02623 7.03509 38116 ft 416 kts 305°
2026-05-01 07:27 36.06177 6.97861 38120 ft 416 kts 305°
2026-05-01 07:27 36.09732 6.92203 38131 ft 416 kts 305°
2026-05-01 07:28 36.13284 6.86542 38146 ft 416 kts 305°
2026-05-01 07:28 36.16835 6.80873 38158 ft 416 kts 304°
2026-05-01 07:29 36.20374 6.75212 38175 ft 416 kts 305°
2026-05-01 07:29 36.23909 6.69550 38182 ft 415 kts 305°
2026-05-01 07:30 36.27442 6.63877 38185 ft 415 kts 304°
2026-05-01 07:30 36.28856 6.60802 38176 ft 408 kts 287°
2026-05-01 07:30 36.29512 6.57431 38192 ft 408 kts 280°
2026-05-01 07:31 36.30533 6.50480 38183 ft 410 kts 278°
2026-05-01 07:32 36.32705 6.32964 38634 ft 412 kts 277°
2026-05-01 07:32 36.33127 6.29451 38985 ft 411 kts 277°
2026-05-01 07:33 36.33960 6.22473 39482 ft 412 kts 277°
2026-05-01 07:33 36.34380 6.18946 39712 ft 413 kts 277°
2026-05-01 07:33 36.35217 6.11881 40132 ft 415 kts 277°
2026-05-01 07:34 36.36467 6.01261 40121 ft 417 kts 277°
2026-05-01 07:35 36.37147 5.95451 40137 ft 419 kts 277°
2026-05-01 07:35 36.37982 5.88284 40130 ft 420 kts 277°
2026-05-01 07:36 36.38844 5.81164 40132 ft 420 kts 277°
2026-05-01 07:36 36.39717 5.73984 40130 ft 420 kts 277°
2026-05-01 07:37 36.41016 5.63217 40129 ft 421 kts 277°
2026-05-01 07:37 36.41879 5.56025 40140 ft 421 kts 277°
2026-05-01 07:38 36.42737 5.48830 40144 ft 421 kts 277°
2026-05-01 07:39 36.44013 5.38071 40148 ft 421 kts 277°
2026-05-01 07:39 36.45282 5.27273 40142 ft 421 kts 277°
2026-05-01 07:40 36.46123 5.20070 40125 ft 421 kts 277°
2026-05-01 07:40 36.46961 5.12865 40125 ft 421 kts 276°
2026-05-01 07:41 36.47794 5.05658 40124 ft 421 kts 276°
2026-05-01 07:41 36.48237 4.98437 40123 ft 417 kts 262°
2026-05-01 07:42 36.47913 4.94839 40104 ft 419 kts 263°
2026-05-01 07:42 36.47317 4.87675 40124 ft 420 kts 263°
2026-05-01 07:43 36.46664 4.80452 40121 ft 420 kts 262°
2026-05-01 07:43 36.45662 4.69597 40120 ft 421 kts 262°
2026-05-01 07:44 36.44310 4.55120 40123 ft 422 kts 262°
2026-05-01 07:45 36.43630 4.47920 40125 ft 423 kts 262°
2026-05-01 07:45 36.42940 4.40654 40124 ft 424 kts 262°
2026-05-01 07:46 36.42363 4.34609 40132 ft 424 kts 262°
2026-05-01 07:47 36.41311 4.23684 40134 ft 425 kts 262°
2026-05-01 07:47 36.40604 4.16402 40134 ft 425 kts 262°
2026-05-01 07:48 36.39534 4.05460 40138 ft 426 kts 262°
2026-05-01 07:48 36.38813 3.98156 40143 ft 426 kts 262°
2026-05-01 07:49 36.37726 3.87215 40140 ft 427 kts 262°
2026-05-01 07:50 36.36994 3.79899 40141 ft 427 kts 262°
2026-05-01 07:50 36.35884 3.68912 40151 ft 428 kts 262°
2026-05-01 07:51 36.35145 3.61641 40154 ft 428 kts 262°
2026-05-01 07:52 36.34017 3.50639 40139 ft 428 kts 262°
2026-05-01 07:52 36.33261 3.43312 40151 ft 428 kts 262°
2026-05-01 07:53 36.32118 3.32333 40151 ft 428 kts 262°
2026-05-01 07:53 36.31351 3.25018 40152 ft 428 kts 262°
2026-05-01 07:55 36.29421 3.06789 40145 ft 427 kts 262°
2026-05-01 07:56 36.27459 2.88548 40155 ft 427 kts 262°
2026-05-01 07:57 36.26267 2.77588 40141 ft 427 kts 262°
2026-05-01 07:58 36.24668 2.63032 40156 ft 427 kts 261°
2026-05-01 07:59 36.23045 2.48470 40148 ft 427 kts 261°
2026-05-01 08:00 36.20575 2.26618 40155 ft 426 kts 261°
2026-05-01 08:01 36.18910 2.12083 40153 ft 426 kts 261°
2026-05-01 08:02 36.17655 2.01237 40152 ft 425 kts 261°
2026-05-01 08:03 36.16394 1.90392 40153 ft 423 kts 262°
2026-05-01 08:03 36.15128 1.79583 40158 ft 422 kts 262°
2026-05-01 08:04 36.13434 1.65258 40155 ft 422 kts 262°
2026-05-01 08:05 36.12152 1.54507 40158 ft 421 kts 262°
2026-05-01 08:06 36.09468 1.44213 40159 ft 423 kts 248°
2026-05-01 08:07 36.04713 1.30886 40159 ft 423 kts 248°
2026-05-01 08:08 36.01114 1.20956 40164 ft 424 kts 248°
2026-05-01 08:09 35.96290 1.07700 40162 ft 422 kts 248°
2026-05-01 08:09 35.93874 1.01081 40170 ft 422 kts 248°
2026-05-01 08:10 35.89057 0.87927 40168 ft 421 kts 248°
2026-05-01 08:11 35.84217 0.74767 40164 ft 421 kts 248°
2026-05-01 08:12 35.80584 0.64924 40166 ft 420 kts 248°
2026-05-01 08:13 35.76967 0.55153 40168 ft 419 kts 248°
2026-05-01 08:13 35.73327 0.45353 40165 ft 418 kts 248°
2026-05-01 08:14 35.70905 0.38849 40173 ft 418 kts 248°
2026-05-01 08:14 35.68494 0.32382 40171 ft 417 kts 248°
2026-05-01 08:15 35.64858 0.22662 40173 ft 416 kts 248°
2026-05-01 08:16 35.62433 0.16199 40172 ft 416 kts 248°
2026-05-01 08:16 35.60007 0.09742 40174 ft 415 kts 248°
2026-05-01 08:17 35.57579 0.03297 40172 ft 415 kts 248°
2026-05-01 08:17 35.55167 -0.03096 40173 ft 414 kts 249°
2026-05-01 08:18 35.52743 -0.09509 40172 ft 413 kts 249°
2026-05-01 08:19 35.47905 -0.22266 40164 ft 412 kts 249°
2026-05-01 08:19 35.45480 -0.28643 40162 ft 412 kts 249°
2026-05-01 08:20 35.43066 -0.34978 40164 ft 411 kts 249°
2026-05-01 08:20 35.40640 -0.41332 40160 ft 410 kts 249°
2026-05-01 08:21 35.38213 -0.47673 40165 ft 410 kts 249°
2026-05-01 08:21 35.35804 -0.53956 40164 ft 409 kts 249°
2026-05-01 08:22 35.33376 -0.60278 40478 ft 410 kts 249°
2026-05-01 08:22 35.32159 -0.63440 40707 ft 411 kts 249°
2026-05-01 08:22 35.30941 -0.66606 40921 ft 411 kts 249°
2026-05-01 08:22 35.29717 -0.69780 41118 ft 412 kts 249°
2026-05-01 08:23 35.28492 -0.72957 41178 ft 412 kts 249°
2026-05-01 08:23 35.26050 -0.79282 41186 ft 410 kts 249°
2026-05-01 08:24 35.23625 -0.85542 41185 ft 409 kts 249°
2026-05-01 08:24 35.21182 -0.91839 41191 ft 409 kts 249°
2026-05-01 08:25 35.18739 -0.98122 41185 ft 408 kts 249°
2026-05-01 08:25 35.16297 -1.04392 41185 ft 408 kts 249°
2026-05-01 08:26 35.13868 -1.10617 41186 ft 408 kts 249°
2026-05-01 08:26 35.11420 -1.16880 41182 ft 408 kts 249°
2026-05-01 08:27 35.08973 -1.23127 41184 ft 407 kts 249°
2026-05-01 08:27 35.06525 -1.29365 41180 ft 407 kts 249°
2026-05-01 08:28 35.04073 -1.35600 41183 ft 407 kts 249°
2026-05-01 08:28 35.01637 -1.41784 41182 ft 407 kts 249°
2026-05-01 08:29 34.99183 -1.48000 41185 ft 407 kts 249°
2026-05-01 08:29 34.96727 -1.54211 41184 ft 406 kts 249°
2026-05-01 08:30 34.94272 -1.60408 41187 ft 406 kts 249°
2026-05-01 08:30 34.91813 -1.66604 41182 ft 405 kts 249°
2026-05-01 08:31 34.89354 -1.72787 41186 ft 405 kts 249°
2026-05-01 08:31 34.86895 -1.78963 41183 ft 405 kts 249°
2026-05-01 08:32 34.84164 -1.84971 41179 ft 411 kts 236°
2026-05-01 08:32 34.80539 -1.90327 41185 ft 413 kts 236°
2026-05-01 08:33 34.76665 -1.95519 41173 ft 421 kts 223°
2026-05-01 08:33 34.71921 -1.99770 41191 ft 424 kts 223°
2026-05-01 08:34 34.67150 -2.04005 41191 ft 425 kts 223°
2026-05-01 08:34 34.62363 -2.08213 41178 ft 425 kts 223°
2026-05-01 08:35 34.57575 -2.12412 41186 ft 425 kts 223°
2026-05-01 08:35 34.53593 -2.15899 41169 ft 424 kts 223°
2026-05-01 08:36 34.48796 -2.20094 41178 ft 425 kts 223°
2026-05-01 08:36 34.43996 -2.24286 41177 ft 425 kts 223°
2026-05-01 08:37 34.39202 -2.28467 41175 ft 425 kts 223°
2026-05-01 08:37 34.34431 -2.32621 41171 ft 425 kts 223°
2026-05-01 08:38 34.29632 -2.36795 41174 ft 425 kts 223°
2026-05-01 08:38 34.24828 -2.40966 41170 ft 425 kts 223°
2026-05-01 08:39 34.20004 -2.45095 41181 ft 425 kts 222°
2026-05-01 08:39 34.15174 -2.49215 41170 ft 425 kts 222°
2026-05-01 08:40 34.07951 -2.55368 41149 ft 425 kts 222°
2026-05-01 08:40 34.03111 -2.59482 41163 ft 425 kts 222°
2026-05-01 08:41 33.98279 -2.63584 41164 ft 425 kts 222°
2026-05-01 08:41 33.93430 -2.67694 41170 ft 425 kts 222°
2026-05-01 08:42 33.88594 -2.71789 41171 ft 425 kts 222°
2026-05-01 08:42 33.83786 -2.75853 41176 ft 425 kts 222°
2026-05-01 08:43 33.78951 -2.79935 41173 ft 425 kts 222°
2026-05-01 08:43 33.74111 -2.84016 41177 ft 425 kts 222°
2026-05-01 08:44 33.69270 -2.88091 41180 ft 425 kts 222°
2026-05-01 08:44 33.64424 -2.92165 41177 ft 425 kts 222°
2026-05-01 08:45 33.59575 -2.96235 41180 ft 424 kts 222°
2026-05-01 08:45 33.54734 -3.00293 41188 ft 425 kts 221°
2026-05-01 08:46 33.49922 -3.04322 41183 ft 424 kts 221°
2026-05-01 08:46 33.45088 -3.08363 41189 ft 424 kts 221°
2026-05-01 08:47 33.40249 -3.12402 41185 ft 424 kts 221°
2026-05-01 08:47 33.35417 -3.16431 41187 ft 423 kts 221°
2026-05-01 08:48 33.30578 -3.20459 41191 ft 423 kts 221°
2026-05-01 08:48 33.25744 -3.24479 41197 ft 423 kts 221°
2026-05-01 08:49 33.20917 -3.28486 41193 ft 422 kts 221°
2026-05-01 08:49 33.16125 -3.32461 41195 ft 422 kts 221°
2026-05-01 08:50 33.11352 -3.36519 41192 ft 421 kts 222°
2026-05-01 08:50 33.06583 -3.40576 41198 ft 420 kts 222°
2026-05-01 08:51 33.01820 -3.44621 41203 ft 420 kts 221°
2026-05-01 08:51 32.97057 -3.48659 41196 ft 420 kts 221°
2026-05-01 08:52 32.92326 -3.52667 41200 ft 420 kts 221°
2026-05-01 08:52 32.87570 -3.56689 41193 ft 419 kts 221°
2026-05-01 08:53 32.82816 -3.60704 41194 ft 419 kts 221°
2026-05-01 08:53 32.78055 -3.64720 41200 ft 419 kts 221°
2026-05-01 08:54 32.73304 -3.68722 41201 ft 419 kts 221°
2026-05-01 08:54 32.68572 -3.72702 41206 ft 418 kts 221°
2026-05-01 08:55 32.63823 -3.76692 41194 ft 418 kts 221°
2026-05-01 08:55 32.59071 -3.80679 41193 ft 418 kts 221°
2026-05-01 08:56 32.54314 -3.84664 41188 ft 418 kts 221°
2026-05-01 08:56 32.49595 -3.88613 41194 ft 417 kts 221°
2026-05-01 08:57 32.44858 -3.92571 41191 ft 417 kts 221°
2026-05-01 08:57 32.40115 -3.96530 41191 ft 416 kts 221°
2026-05-01 08:58 32.35385 -4.00472 41173 ft 415 kts 221°
2026-05-01 08:58 32.30687 -4.04382 41176 ft 415 kts 221°
2026-05-01 08:59 32.25968 -4.08306 41169 ft 415 kts 221°
2026-05-01 08:59 32.21246 -4.12227 41152 ft 414 kts 221°
2026-05-01 09:00 32.16538 -4.16130 41165 ft 414 kts 221°
2026-05-01 09:00 32.11825 -4.20033 41178 ft 413 kts 221°
2026-05-01 09:01 32.07110 -4.23931 41170 ft 413 kts 221°
2026-05-01 09:01 32.02434 -4.27795 41181 ft 413 kts 221°
2026-05-01 09:02 31.97718 -4.31687 41182 ft 413 kts 221°
2026-05-01 09:02 31.93264 -4.35846 41170 ft 400 kts 237°
2026-05-01 09:03 31.90580 -4.41484 41179 ft 395 kts 247°
2026-05-01 09:03 31.88247 -4.47340 41187 ft 395 kts 249°
2026-05-01 09:04 31.86000 -4.53239 41177 ft 395 kts 249°
2026-05-01 09:04 31.83780 -4.59142 41166 ft 394 kts 249°
2026-05-01 09:05 31.81577 -4.65004 41156 ft 394 kts 249°
2026-05-01 09:05 31.79356 -4.70904 41148 ft 394 kts 249°
2026-05-01 09:06 31.77133 -4.76801 41139 ft 394 kts 249°
2026-05-01 09:06 31.74909 -4.82690 41138 ft 394 kts 249°
2026-05-01 09:07 31.72685 -4.88571 41137 ft 394 kts 249°
2026-05-01 09:07 31.70453 -4.94460 41133 ft 394 kts 249°
2026-05-01 09:08 31.68236 -5.00303 41134 ft 394 kts 249°
2026-05-01 09:08 31.66004 -5.06174 41135 ft 394 kts 249°
2026-05-01 09:09 31.63767 -5.12046 41137 ft 394 kts 249°
2026-05-01 09:09 31.61528 -5.17916 41137 ft 394 kts 249°
2026-05-01 09:10 31.59289 -5.23779 41139 ft 394 kts 249°
2026-05-01 09:10 31.57045 -5.29640 41138 ft 394 kts 249°
2026-05-01 09:11 31.54798 -5.35501 41143 ft 394 kts 249°
2026-05-01 09:11 31.52548 -5.41359 41147 ft 394 kts 249°
2026-05-01 09:12 31.50295 -5.47218 41144 ft 394 kts 248°
2026-05-01 09:12 31.48041 -5.53067 41149 ft 394 kts 248°
2026-05-01 09:13 31.45800 -5.58873 41150 ft 394 kts 248°
2026-05-01 09:13 31.43537 -5.64727 41151 ft 394 kts 248°
2026-05-01 09:14 31.41274 -5.70573 41154 ft 394 kts 248°
2026-05-01 09:14 31.39007 -5.76418 41146 ft 394 kts 248°
2026-05-01 09:15 31.36753 -5.82220 41150 ft 394 kts 248°
2026-05-01 09:15 31.34481 -5.88058 41155 ft 394 kts 248°
2026-05-01 09:16 31.32204 -5.93898 41155 ft 394 kts 248°
2026-05-01 09:17 31.28785 -6.02654 41135 ft 394 kts 248°
2026-05-01 09:17 31.25378 -6.11355 41141 ft 394 kts 248°
2026-05-01 09:18 31.21951 -6.20087 41133 ft 394 kts 248°
2026-05-01 09:19 31.18516 -6.28815 41131 ft 394 kts 248°
2026-05-01 09:20 31.15080 -6.37533 41128 ft 394 kts 248°
2026-05-01 09:21 31.10499 -6.49103 41125 ft 393 kts 248°
2026-05-01 09:21 31.07045 -6.57795 41135 ft 394 kts 248°
2026-05-01 09:22 31.02419 -6.69404 41159 ft 394 kts 248°
2026-05-01 09:23 30.98962 -6.78056 41175 ft 394 kts 248°
2026-05-01 09:24 30.95486 -6.86734 41184 ft 394 kts 248°
2026-05-01 09:25 30.92280 -6.97741 41183 ft 392 kts 256°
2026-05-01 09:26 30.90091 -7.06924 41171 ft 392 kts 256°
2026-05-01 09:26 30.87911 -7.16077 41150 ft 392 kts 256°
2026-05-01 09:27 30.85720 -7.25249 41134 ft 392 kts 256°
2026-05-01 09:28 30.84252 -7.31375 41129 ft 393 kts 256°
2026-05-01 09:28 30.82781 -7.37494 41131 ft 393 kts 255°
2026-05-01 09:29 30.80570 -7.46660 41131 ft 393 kts 255°
2026-05-01 09:30 30.78351 -7.55828 41127 ft 394 kts 255°
2026-05-01 09:30 30.76119 -7.65019 41137 ft 394 kts 255°
2026-05-01 09:31 30.74623 -7.71159 41126 ft 394 kts 255°
2026-05-01 09:32 30.72376 -7.80360 41126 ft 394 kts 255°
2026-05-01 09:32 30.70128 -7.89530 41124 ft 395 kts 255°
2026-05-01 09:33 30.68619 -7.95672 41109 ft 395 kts 255°
2026-05-01 09:34 30.66344 -8.04901 41111 ft 395 kts 255°
2026-05-01 09:34 30.64075 -8.14081 41118 ft 395 kts 255°
2026-05-01 09:35 30.61788 -8.23297 41113 ft 395 kts 255°
2026-05-01 09:36 30.60273 -8.29390 41115 ft 395 kts 255°
2026-05-01 09:36 30.58744 -8.35526 41118 ft 395 kts 255°
2026-05-01 09:37 30.57193 -8.41658 41114 ft 396 kts 254°
2026-05-01 09:37 30.54865 -8.50820 41116 ft 396 kts 254°
2026-05-01 09:38 30.52501 -8.60003 41109 ft 396 kts 254°
2026-05-01 09:39 30.50120 -8.69178 41108 ft 396 kts 254°
2026-05-01 09:39 30.48527 -8.75304 41107 ft 396 kts 254°
2026-05-01 09:40 30.46132 -8.84485 41105 ft 396 kts 254°
2026-05-01 09:41 30.44543 -8.90565 41103 ft 397 kts 254°
2026-05-01 09:41 30.42181 -8.99764 41102 ft 397 kts 254°
2026-05-01 09:42 30.40601 -9.05901 41104 ft 397 kts 254°
2026-05-01 09:43 30.37447 -9.18112 41103 ft 397 kts 254°
2026-05-01 09:43 30.35862 -9.24230 41104 ft 397 kts 254°
2026-05-01 09:44 30.33475 -9.33419 41105 ft 397 kts 254°
2026-05-01 09:45 30.31193 -9.39187 41105 ft 400 kts 233°
2026-05-01 09:45 30.25694 -9.46475 41103 ft 403 kts 231°
2026-05-01 09:46 30.21916 -9.51274 41098 ft 404 kts 231°
2026-05-01 09:46 30.18117 -9.56051 41102 ft 404 kts 231°
2026-05-01 09:47 30.14309 -9.60828 41099 ft 404 kts 231°
2026-05-01 09:47 30.10495 -9.65606 41105 ft 404 kts 231°
2026-05-01 09:48 30.06682 -9.70378 41109 ft 404 kts 231°
2026-05-01 09:48 30.02888 -9.75178 41113 ft 404 kts 231°
2026-05-01 09:49 29.99152 -9.79962 41112 ft 404 kts 231°
2026-05-01 09:49 29.95383 -9.84777 41123 ft 404 kts 231°
2026-05-01 09:50 29.91614 -9.89585 41128 ft 404 kts 231°
2026-05-01 09:50 29.87847 -9.94386 41124 ft 404 kts 231°
2026-05-01 09:51 29.84068 -9.99195 41126 ft 404 kts 231°
2026-05-01 09:51 29.80255 -10.03961 41130 ft 404 kts 230°
2026-05-01 09:52 29.76418 -10.08695 41134 ft 404 kts 230°
2026-05-01 09:52 29.72607 -10.13395 41133 ft 404 kts 230°
2026-05-01 09:53 29.68766 -10.18126 41132 ft 404 kts 230°
2026-05-01 09:53 29.64922 -10.22856 41127 ft 404 kts 230°
2026-05-01 09:54 29.61081 -10.27577 41130 ft 404 kts 230°
2026-05-01 09:54 29.57230 -10.32304 41123 ft 404 kts 230°
2026-05-01 09:55 29.53401 -10.36999 41123 ft 405 kts 230°
2026-05-01 09:55 29.49544 -10.41722 41120 ft 405 kts 230°
2026-05-01 09:56 29.45693 -10.46433 41123 ft 405 kts 230°
2026-05-01 09:56 29.41837 -10.51144 41123 ft 405 kts 230°
2026-05-01 09:57 29.37983 -10.55846 41128 ft 405 kts 230°
2026-05-01 09:57 29.34124 -10.60549 41129 ft 405 kts 230°
2026-05-01 09:58 29.30285 -10.65223 41136 ft 405 kts 230°
2026-05-01 09:58 29.26424 -10.69918 41138 ft 405 kts 230°
2026-05-01 09:59 29.22549 -10.74624 41139 ft 405 kts 230°
2026-05-01 09:59 29.18704 -10.79289 41147 ft 405 kts 230°
2026-05-01 10:00 29.14835 -10.83976 41148 ft 405 kts 230°
2026-05-01 10:00 29.10967 -10.88658 41149 ft 405 kts 230°
2026-05-01 10:01 29.07091 -10.93342 41154 ft 405 kts 230°
2026-05-01 10:01 29.03240 -10.97992 41153 ft 405 kts 230°
2026-05-01 10:02 28.99363 -11.02668 41155 ft 405 kts 230°
2026-05-01 10:02 28.95484 -11.07340 41150 ft 405 kts 230°
2026-05-01 10:03 28.91633 -11.11973 41159 ft 404 kts 230°
2026-05-01 10:03 28.87756 -11.16634 41169 ft 404 kts 230°
2026-05-01 10:04 28.83881 -11.21284 41160 ft 405 kts 230°
2026-05-01 10:04 28.80001 -11.25937 41167 ft 405 kts 230°
2026-05-01 10:05 28.76112 -11.30595 41162 ft 405 kts 230°
2026-05-01 10:05 28.72241 -11.35225 41166 ft 405 kts 230°
2026-05-01 10:06 28.68346 -11.39879 41160 ft 405 kts 230°
2026-05-01 10:06 28.64453 -11.44525 41168 ft 405 kts 230°
2026-05-01 10:07 28.60561 -11.49165 41164 ft 405 kts 230°
2026-05-01 10:07 28.56696 -11.53767 41167 ft 405 kts 230°
2026-05-01 10:08 28.50856 -11.60712 41165 ft 405 kts 230°
2026-05-01 10:09 28.46961 -11.65337 41165 ft 404 kts 230°
2026-05-01 10:09 28.43069 -11.69953 41172 ft 404 kts 230°
2026-05-01 10:10 28.39172 -11.74570 41168 ft 404 kts 230°
2026-05-01 10:10 28.33352 -11.81454 41172 ft 404 kts 230°
2026-05-01 10:11 28.29445 -11.86070 41170 ft 404 kts 230°
2026-05-01 10:11 28.25542 -11.90675 41174 ft 404 kts 230°
2026-05-01 10:12 28.22299 -11.94498 41170 ft 404 kts 230°
2026-05-01 10:13 28.15814 -12.02132 41169 ft 404 kts 230°
2026-05-01 10:13 28.11909 -12.06722 41176 ft 404 kts 231°
2026-05-01 10:14 28.06714 -12.12820 41171 ft 404 kts 231°
2026-05-01 10:14 28.02814 -12.17393 41175 ft 404 kts 231°
2026-05-01 10:15 27.98909 -12.21965 41170 ft 404 kts 231°
2026-05-01 10:15 27.94998 -12.26539 41173 ft 404 kts 231°
2026-05-01 10:16 27.91113 -12.31079 41170 ft 404 kts 231°
2026-05-01 10:17 27.85243 -12.37929 41169 ft 403 kts 231°
2026-05-01 10:17 27.79383 -12.44757 41174 ft 403 kts 231°
2026-05-01 10:18 27.73542 -12.51552 41168 ft 403 kts 231°
2026-05-01 10:19 27.69634 -12.56092 41172 ft 403 kts 231°
2026-05-01 10:19 27.65759 -12.60651 41170 ft 402 kts 232°
2026-05-01 10:20 27.60016 -12.67523 41170 ft 402 kts 232°
2026-05-01 10:20 27.56178 -12.72105 41175 ft 402 kts 232°
2026-05-01 10:21 27.50415 -12.78976 41166 ft 402 kts 232°
2026-05-01 10:22 27.44654 -12.85834 41168 ft 402 kts 232°
2026-05-01 10:23 27.38890 -12.92685 41166 ft 401 kts 232°
2026-05-01 10:23 27.33129 -12.99520 41166 ft 401 kts 232°
2026-05-01 10:24 27.25459 -13.08604 41160 ft 401 kts 232°
2026-05-01 10:25 27.17766 -13.17695 41159 ft 401 kts 232°
2026-05-01 10:26 27.13839 -13.22146 41145 ft 406 kts 224°
2026-05-01 10:27 27.04665 -13.29669 41158 ft 408 kts 223°
2026-05-01 10:28 26.97804 -13.35272 41157 ft 408 kts 223°
2026-05-01 10:28 26.90948 -13.40862 41160 ft 408 kts 223°
2026-05-01 10:29 26.84057 -13.46470 41154 ft 407 kts 223°
2026-05-01 10:30 26.74900 -13.53910 41158 ft 407 kts 223°
2026-05-01 10:31 26.65719 -13.61354 41156 ft 407 kts 223°
2026-05-01 10:32 26.58837 -13.66925 41163 ft 407 kts 223°
2026-05-01 10:33 26.49667 -13.74334 41161 ft 407 kts 223°
2026-05-01 10:34 26.42815 -13.79861 41162 ft 406 kts 223°
2026-05-01 10:34 26.38225 -13.83558 41162 ft 406 kts 223°
2026-05-01 10:35 26.31343 -13.89095 41163 ft 406 kts 223°
2026-05-01 10:35 26.26754 -13.92783 41166 ft 406 kts 223°
2026-05-01 10:36 26.19899 -13.98284 41162 ft 406 kts 223°
2026-05-01 10:37 26.15311 -14.01961 41162 ft 406 kts 223°
2026-05-01 10:37 26.08419 -14.07480 41166 ft 406 kts 223°
2026-05-01 10:38 26.03846 -14.11135 41162 ft 406 kts 223°
2026-05-01 10:38 25.99247 -14.14809 41162 ft 406 kts 223°
2026-05-01 10:39 25.94649 -14.18478 41159 ft 406 kts 223°
2026-05-01 10:39 25.90053 -14.22143 41160 ft 407 kts 223°
2026-05-01 10:40 25.85485 -14.25781 41157 ft 407 kts 223°
2026-05-01 10:40 25.80884 -14.29443 41158 ft 407 kts 223°
2026-05-01 10:41 25.76273 -14.33109 41150 ft 407 kts 223°
2026-05-01 10:42 25.69422 -14.38603 41101 ft 406 kts 223°
2026-05-01 10:42 25.67139 -14.40441 40882 ft 405 kts 223°
2026-05-01 10:42 25.64859 -14.42276 40658 ft 405 kts 224°
2026-05-01 10:42 25.62575 -14.44114 40425 ft 405 kts 224°
2026-05-01 10:43 25.60296 -14.45947 40221 ft 404 kts 224°
2026-05-01 10:43 25.55728 -14.49616 40145 ft 406 kts 224°
2026-05-01 10:44 25.51170 -14.53275 40146 ft 407 kts 224°
2026-05-01 10:44 25.46581 -14.56955 40145 ft 407 kts 224°
2026-05-01 10:45 25.41979 -14.60642 40148 ft 408 kts 224°
2026-05-01 10:45 25.37386 -14.64318 40145 ft 408 kts 224°
2026-05-01 10:46 25.32808 -14.67979 40142 ft 408 kts 224°
2026-05-01 10:46 25.28198 -14.71662 40143 ft 408 kts 224°
2026-05-01 10:47 25.23582 -14.75345 40145 ft 409 kts 224°
2026-05-01 10:47 25.19001 -14.78998 40144 ft 409 kts 224°
2026-05-01 10:48 25.14376 -14.82682 40145 ft 409 kts 224°
2026-05-01 10:48 25.09747 -14.86366 40136 ft 409 kts 224°
2026-05-01 10:49 25.05140 -14.90028 40145 ft 410 kts 224°
2026-05-01 10:49 25.00501 -14.93712 40139 ft 410 kts 223°
2026-05-01 10:50 24.95870 -14.97366 40137 ft 411 kts 223°
2026-05-01 10:50 24.91216 -15.01035 40138 ft 411 kts 223°
2026-05-01 10:51 24.86556 -15.04707 40134 ft 411 kts 223°
2026-05-01 10:51 24.81912 -15.08363 40134 ft 412 kts 223°
2026-05-01 10:52 24.77245 -15.12032 40133 ft 412 kts 223°
2026-05-01 10:52 24.72572 -15.15704 40134 ft 412 kts 223°
2026-05-01 10:53 24.67897 -15.19373 40136 ft 412 kts 223°
2026-05-01 10:53 24.63226 -15.23037 40129 ft 412 kts 223°
2026-05-01 10:54 24.58574 -15.26681 40131 ft 413 kts 223°
2026-05-01 10:54 24.53900 -15.30339 40134 ft 412 kts 223°
2026-05-01 10:55 24.49221 -15.33998 40134 ft 413 kts 223°
2026-05-01 10:55 24.44537 -15.37657 40134 ft 412 kts 223°
2026-05-01 10:56 24.39885 -15.41289 40130 ft 413 kts 223°
2026-05-01 10:56 24.35202 -15.44940 40130 ft 413 kts 223°
2026-05-01 10:57 24.30522 -15.48586 40129 ft 413 kts 223°
2026-05-01 10:57 24.25832 -15.52236 40126 ft 413 kts 223°
2026-05-01 10:58 24.21150 -15.55878 40127 ft 413 kts 223°
2026-05-01 10:58 24.18814 -15.57694 39999 ft 410 kts 222°
2026-05-01 10:58 24.16528 -15.59469 40123 ft 405 kts 222°
2026-05-01 10:59 24.11958 -15.63016 40128 ft 401 kts 222°
2026-05-01 10:59 24.07408 -15.66545 40128 ft 401 kts 222°
2026-05-01 11:00 24.02858 -15.70070 40127 ft 401 kts 222°
2026-05-01 11:00 23.98300 -15.73599 40126 ft 401 kts 222°
2026-05-01 11:01 23.93747 -15.77121 40128 ft 401 kts 222°
2026-05-01 11:01 23.89223 -15.80617 40121 ft 401 kts 222°
2026-05-01 11:02 23.84665 -15.84137 40125 ft 401 kts 222°
2026-05-01 11:02 23.80110 -15.87651 40121 ft 401 kts 222°
2026-05-01 11:03 23.75553 -15.91150 40129 ft 402 kts 220°
2026-05-01 11:03 23.71209 -15.93210 40118 ft 413 kts 209°
2026-05-01 11:04 23.65820 -15.95434 40123 ft 414 kts 208°
2026-05-01 11:04 23.60402 -15.97610 40123 ft 415 kts 208°
2026-05-01 11:05 23.54976 -15.99777 40132 ft 415 kts 208°
2026-05-01 11:05 23.49574 -16.01931 40127 ft 415 kts 208°
2026-05-01 11:06 23.44141 -16.04094 40121 ft 415 kts 208°
2026-05-01 11:06 23.38716 -16.06254 40117 ft 415 kts 208°
2026-05-01 11:07 23.30565 -16.09494 40114 ft 415 kts 208°
2026-05-01 11:07 23.25135 -16.11650 40113 ft 415 kts 208°
2026-05-01 11:08 23.19741 -16.13790 40110 ft 415 kts 207°
2026-05-01 11:09 23.11595 -16.17018 40107 ft 415 kts 207°
2026-05-01 11:09 23.06163 -16.19169 40112 ft 415 kts 207°
2026-05-01 11:10 22.98004 -16.22395 40106 ft 416 kts 207°
2026-05-01 11:10 22.92602 -16.24530 40111 ft 415 kts 207°
2026-05-01 11:11 22.87170 -16.26673 40109 ft 415 kts 207°
2026-05-01 11:11 22.81738 -16.28815 40110 ft 415 kts 207°
2026-05-01 11:12 22.76302 -16.30957 40110 ft 415 kts 207°
2026-05-01 11:12 22.70869 -16.33097 40108 ft 415 kts 207°
2026-05-01 11:13 22.65472 -16.35219 40109 ft 415 kts 207°
2026-05-01 11:13 22.60041 -16.37354 40104 ft 415 kts 207°
2026-05-01 11:14 22.54609 -16.39487 40107 ft 415 kts 207°
2026-05-01 11:14 22.49185 -16.41615 40104 ft 415 kts 207°
2026-05-01 11:15 22.43752 -16.43745 40103 ft 415 kts 207°
2026-05-01 11:15 22.38321 -16.45873 40106 ft 414 kts 207°
2026-05-01 11:16 22.32898 -16.47995 40104 ft 414 kts 207°
2026-05-01 11:16 22.27472 -16.50117 40099 ft 414 kts 207°
2026-05-01 11:17 22.22084 -16.52222 40098 ft 414 kts 207°
2026-05-01 11:17 22.16652 -16.54343 40098 ft 415 kts 207°
2026-05-01 11:18 22.11223 -16.56461 40103 ft 415 kts 207°
2026-05-01 11:18 22.05795 -16.58577 40100 ft 414 kts 207°
2026-05-01 11:19 22.00373 -16.60689 40108 ft 414 kts 207°
2026-05-01 11:19 21.94947 -16.62801 40097 ft 415 kts 207°
2026-05-01 11:20 21.89517 -16.64913 40097 ft 415 kts 207°
2026-05-01 11:20 21.84126 -16.67034 40099 ft 414 kts 207°
2026-05-01 11:21 21.78726 -16.69210 40097 ft 414 kts 207°
2026-05-01 11:21 21.73317 -16.71383 40095 ft 414 kts 207°
2026-05-01 11:22 21.67912 -16.73551 40091 ft 414 kts 207°
2026-05-01 11:22 21.62545 -16.75703 40087 ft 414 kts 207°
2026-05-01 11:23 21.57139 -16.77870 40087 ft 414 kts 207°
2026-05-01 11:23 21.51738 -16.80032 40087 ft 414 kts 207°
2026-05-01 11:24 21.46337 -16.82193 40088 ft 414 kts 207°
2026-05-01 11:25 21.38232 -16.85432 40088 ft 414 kts 207°
2026-05-01 11:25 21.33297 -16.88310 40082 ft 395 kts 230°
2026-05-01 11:25 21.31489 -16.90512 40091 ft 394 kts 233°
2026-05-01 11:26 21.26387 -16.97414 40089 ft 393 kts 236°
2026-05-01 11:27 21.23112 -17.02060 40083 ft 393 kts 236°
2026-05-01 11:27 21.19833 -17.06749 40083 ft 393 kts 237°
2026-05-01 11:28 21.16553 -17.11443 40086 ft 393 kts 236°
2026-05-01 11:28 21.13275 -17.16130 40082 ft 393 kts 236°
2026-05-01 11:29 21.08351 -17.23162 40083 ft 393 kts 236°
2026-05-01 11:30 21.03448 -17.30157 40084 ft 393 kts 236°
2026-05-01 11:30 21.00164 -17.34836 40086 ft 393 kts 236°
2026-05-01 11:31 20.96872 -17.39523 40089 ft 393 kts 236°
2026-05-01 11:31 20.93603 -17.44175 40092 ft 393 kts 236°
2026-05-01 11:32 20.90315 -17.48849 40091 ft 393 kts 236°
2026-05-01 11:32 20.87028 -17.53517 40097 ft 393 kts 236°
2026-05-01 11:33 20.83738 -17.58186 40092 ft 393 kts 236°
2026-05-01 11:33 20.80469 -17.62821 40091 ft 393 kts 236°
2026-05-01 11:34 20.77174 -17.67489 40096 ft 393 kts 236°
2026-05-01 11:34 20.73883 -17.72149 40094 ft 393 kts 236°
2026-05-01 11:35 20.70584 -17.76816 40093 ft 393 kts 236°
2026-05-01 11:35 20.67284 -17.81479 40098 ft 393 kts 236°
2026-05-01 11:36 20.64003 -17.86112 40100 ft 393 kts 236°
2026-05-01 11:36 20.60699 -17.90775 40094 ft 393 kts 236°
2026-05-01 11:37 20.57414 -17.95406 40092 ft 393 kts 236°
2026-05-01 11:37 20.54111 -18.00061 40095 ft 393 kts 236°
2026-05-01 11:38 20.50807 -18.04710 40093 ft 393 kts 236°
2026-05-01 11:38 20.47496 -18.09368 40098 ft 393 kts 236°
2026-05-01 11:39 20.44208 -18.13988 40103 ft 393 kts 236°
2026-05-01 11:39 20.40898 -18.18636 40100 ft 393 kts 236°
2026-05-01 11:40 20.37587 -18.23283 40102 ft 393 kts 236°
2026-05-01 11:40 20.34270 -18.27933 40095 ft 393 kts 236°
2026-05-01 11:41 20.30974 -18.32551 40097 ft 394 kts 236°
2026-05-01 11:41 20.27654 -18.37198 40095 ft 393 kts 236°
2026-05-01 11:42 20.24336 -18.41839 40096 ft 394 kts 236°
2026-05-01 11:42 20.21016 -18.46478 40102 ft 394 kts 236°
2026-05-01 11:43 20.17696 -18.51115 40100 ft 394 kts 236°
2026-05-01 11:43 20.14371 -18.55754 40096 ft 394 kts 236°
2026-05-01 11:44 20.09399 -18.62685 40100 ft 394 kts 236°
2026-05-01 11:44 20.06066 -18.67326 40102 ft 394 kts 236°
2026-05-01 11:45 20.02738 -18.71958 40099 ft 394 kts 235°
2026-05-01 11:45 19.99424 -18.76565 40101 ft 394 kts 235°
2026-05-01 11:46 19.96090 -18.81197 40105 ft 394 kts 235°
2026-05-01 11:46 19.92758 -18.85823 40105 ft 394 kts 235°
2026-05-01 11:47 19.89414 -18.90462 40104 ft 394 kts 235°
2026-05-01 11:47 19.86074 -18.95091 40104 ft 394 kts 235°
2026-05-01 11:48 19.82751 -18.99694 40106 ft 394 kts 235°
2026-05-01 11:48 19.79404 -19.04326 40102 ft 395 kts 235°
2026-05-01 11:49 19.76059 -19.08951 40103 ft 394 kts 235°
2026-05-01 11:49 19.72732 -19.13548 40103 ft 394 kts 235°
2026-05-01 11:50 19.69382 -19.18173 40103 ft 395 kts 235°
2026-05-01 11:50 19.66033 -19.22793 40103 ft 395 kts 235°
2026-05-01 11:51 19.62681 -19.27415 40103 ft 395 kts 235°
2026-05-01 11:51 19.59350 -19.32004 40103 ft 395 kts 235°
2026-05-01 11:52 19.55992 -19.36626 40107 ft 395 kts 235°
2026-05-01 11:52 19.52644 -19.41231 40105 ft 395 kts 235°
2026-05-01 11:53 19.49848 -19.45073 40107 ft 395 kts 235°
2026-05-01 11:53 19.46491 -19.49684 40103 ft 395 kts 235°
2026-05-01 11:54 19.43131 -19.54296 40107 ft 395 kts 235°
2026-05-01 11:54 19.39768 -19.58908 40103 ft 395 kts 235°
2026-05-01 11:55 19.36428 -19.63485 40108 ft 395 kts 235°
2026-05-01 11:55 19.33060 -19.68097 40105 ft 395 kts 235°
2026-05-01 11:56 19.29680 -19.72722 40106 ft 396 kts 235°
2026-05-01 11:56 19.26330 -19.77301 40107 ft 395 kts 235°
2026-05-01 11:57 19.22958 -19.81909 40109 ft 395 kts 235°
2026-05-01 11:57 19.19586 -19.86512 40108 ft 395 kts 235°
2026-05-01 11:58 19.16231 -19.91089 40108 ft 395 kts 235°
2026-05-01 11:59 19.11157 -19.98004 40110 ft 395 kts 235°
2026-05-01 11:59 19.07782 -20.02600 40109 ft 396 kts 235°
2026-05-01 12:00 19.02722 -20.09483 40109 ft 396 kts 234°
2026-05-01 12:01 18.97667 -20.16353 40110 ft 396 kts 234°
2026-05-01 12:01 18.94278 -20.20953 40111 ft 396 kts 234°
2026-05-01 12:02 18.90889 -20.25552 40108 ft 396 kts 234°
2026-05-01 12:02 18.87502 -20.30143 40106 ft 396 kts 234°
2026-05-01 12:03 18.84133 -20.34706 40109 ft 396 kts 234°
2026-05-01 12:03 18.80743 -20.39295 40110 ft 396 kts 234°
2026-05-01 12:04 18.77354 -20.43879 40107 ft 396 kts 234°
2026-05-01 12:04 18.73956 -20.48472 40113 ft 396 kts 234°
2026-05-01 12:05 18.70558 -20.53062 40107 ft 397 kts 234°
2026-05-01 12:05 18.65481 -20.59913 40111 ft 397 kts 234°
2026-05-01 12:06 18.62075 -20.64504 40108 ft 397 kts 234°
2026-05-01 12:06 18.58671 -20.69091 40110 ft 397 kts 234°
2026-05-01 12:07 18.55279 -20.73657 40111 ft 397 kts 234°
2026-05-01 12:07 18.51867 -20.78247 40110 ft 397 kts 234°
2026-05-01 12:08 18.48449 -20.82843 40110 ft 397 kts 234°
2026-05-01 12:08 18.45036 -20.87427 40113 ft 398 kts 234°
2026-05-01 12:09 18.41637 -20.91990 40107 ft 398 kts 234°
2026-05-01 12:09 18.38219 -20.96574 40110 ft 398 kts 234°
2026-05-01 12:10 18.33083 -21.03457 40112 ft 398 kts 234°
2026-05-01 12:11 18.27971 -21.10302 40115 ft 398 kts 234°
2026-05-01 12:11 18.24544 -21.14884 40110 ft 398 kts 234°
2026-05-01 12:12 18.21115 -21.19468 40112 ft 398 kts 234°
2026-05-01 12:12 18.17678 -21.24059 40112 ft 398 kts 234°
2026-05-01 12:13 18.14274 -21.28602 40117 ft 398 kts 234°
2026-05-01 12:13 18.10840 -21.33183 40115 ft 399 kts 234°
2026-05-01 12:14 18.07408 -21.37756 40107 ft 399 kts 234°
2026-05-01 12:14 18.03962 -21.42346 40111 ft 399 kts 234°
2026-05-01 12:15 18.00548 -21.46891 40113 ft 399 kts 234°
2026-05-01 12:15 17.97109 -21.51466 40114 ft 399 kts 234°
2026-05-01 12:16 17.93661 -21.56050 40112 ft 399 kts 234°
2026-05-01 12:16 17.90215 -21.60628 40112 ft 399 kts 234°
2026-05-01 12:17 17.86769 -21.65202 40108 ft 399 kts 234°
2026-05-01 12:17 17.83356 -21.69729 40112 ft 398 kts 234°
2026-05-01 12:18 17.79861 -21.74362 40108 ft 409 kts 234°
2026-05-01 12:18 17.76309 -21.79068 40109 ft 411 kts 234°
2026-05-01 12:19 17.72752 -21.83777 40110 ft 411 kts 234°
2026-05-01 12:19 17.69212 -21.88461 40109 ft 411 kts 234°
2026-05-01 12:20 17.65650 -21.93169 40107 ft 412 kts 234°
2026-05-01 12:20 17.62096 -21.97838 40106 ft 411 kts 233°
2026-05-01 12:21 17.58516 -22.02530 40109 ft 411 kts 233°
2026-05-01 12:21 17.54940 -22.07211 40106 ft 411 kts 233°
2026-05-01 12:22 17.51378 -22.11871 40109 ft 411 kts 233°
2026-05-01 12:22 17.47793 -22.16556 40107 ft 411 kts 233°
2026-05-01 12:23 17.44209 -22.21232 40109 ft 412 kts 233°
2026-05-01 12:23 17.40617 -22.25911 40105 ft 412 kts 233°
2026-05-01 12:24 17.37043 -22.30559 40107 ft 412 kts 233°
2026-05-01 12:24 17.33441 -22.35237 40111 ft 412 kts 233°
2026-05-01 12:25 17.28054 -22.42222 40108 ft 412 kts 233°
2026-05-01 12:26 17.24446 -22.46892 40106 ft 412 kts 233°
2026-05-01 12:26 17.19031 -22.53888 40106 ft 412 kts 233°
2026-05-01 12:27 17.13624 -22.60861 40108 ft 412 kts 233°
2026-05-01 12:28 17.08194 -22.67849 40107 ft 412 kts 233°
2026-05-01 12:28 17.04654 -22.72400 38840 ft 398 kts 233°
2026-05-01 12:29 17.02919 -22.74648 37800 ft 396 kts 233°
2026-05-01 12:29 17.01089 -22.76766 36953 ft 392 kts 222°
2026-05-01 12:29 16.96025 -22.78717 35248 ft 399 kts 193°
2026-05-01 12:30 16.90621 -22.79672 33541 ft 390 kts 194°
2026-05-01 12:30 16.87954 -22.80143 32652 ft 387 kts 194°
2026-05-01 12:30 16.85307 -22.80606 31802 ft 384 kts 194°
2026-05-01 12:31 16.82683 -22.81064 30982 ft 380 kts 194°
2026-05-01 12:31 16.80079 -22.81518 30192 ft 377 kts 194°
2026-05-01 12:31 16.77501 -22.81967 29296 ft 374 kts 194°
2026-05-01 12:31 16.74914 -22.82418 28389 ft 381 kts 193°
2026-05-01 12:32 16.72270 -22.82879 27492 ft 389 kts 193°
2026-05-01 12:32 16.66818 -22.83828 25711 ft 403 kts 193°
2026-05-01 12:32 16.64074 -22.84305 24860 ft 408 kts 192°
2026-05-01 12:33 16.61261 -22.84794 24015 ft 412 kts 192°
2026-05-01 12:33 16.58418 -22.85289 23079 ft 416 kts 192°
2026-05-01 12:33 16.55550 -22.85787 22111 ft 418 kts 192°
2026-05-01 12:33 16.52677 -22.86287 21169 ft 419 kts 191°
2026-05-01 12:34 16.49792 -22.86789 20254 ft 420 kts 191°
2026-05-01 12:34 16.46911 -22.87288 19372 ft 419 kts 191°
2026-05-01 12:34 16.44043 -22.87786 18518 ft 417 kts 190°
2026-05-01 12:34 16.41189 -22.88281 17571 ft 414 kts 190°
2026-05-01 12:35 16.38352 -22.88773 16632 ft 410 kts 189°
2026-05-01 12:35 16.35584 -22.89254 15740 ft 406 kts 189°
2026-05-01 12:35 16.32811 -22.89735 14876 ft 401 kts 189°
2026-05-01 12:35 16.30074 -22.90209 14042 ft 395 kts 189°
2026-05-01 12:36 16.27375 -22.90677 13147 ft 390 kts 189°
2026-05-01 12:36 16.24716 -22.91138 12250 ft 385 kts 189°
2026-05-01 12:36 16.22095 -22.91593 11416 ft 380 kts 189°
2026-05-01 12:36 16.19499 -22.92042 10682 ft 374 kts 188°
2026-05-01 12:37 16.16973 -22.92479 10212 ft 361 kts 188°
2026-05-01 12:37 16.14559 -22.92905 9831 ft 346 kts 190°
2026-05-01 12:37 16.12313 -22.93766 9053 ft 346 kts 208°
2026-05-01 12:37 16.10336 -22.95126 8260 ft 342 kts 212°
2026-05-01 12:38 16.08390 -22.96488 7544 ft 324 kts 212°
2026-05-01 12:38 16.06578 -22.97748 6880 ft 310 kts 213°
2026-05-01 12:38 16.04816 -22.98969 6218 ft 298 kts 213°
2026-05-01 12:38 16.03113 -23.00146 5560 ft 289 kts 214°
2026-05-01 12:39 16.01468 -23.01280 5073 ft 277 kts 214°
2026-05-01 12:39 15.99890 -23.02334 4707 ft 263 kts 208°
2026-05-01 12:39 15.98170 -23.02799 4382 ft 251 kts 179°
2026-05-01 12:39 15.96546 -23.02436 4227 ft 231 kts 153°
2026-05-01 12:40 15.95318 -23.01495 4089 ft 211 kts 128°
2026-05-01 12:40 15.94587 -23.00264 3991 ft 191 kts 110°
2026-05-01 12:40 15.94110 -22.99035 3887 ft 177 kts 109°
2026-05-01 12:40 15.93683 -22.97880 3773 ft 174 kts 107°
2026-05-01 12:41 15.93522 -22.96665 3636 ft 168 kts 76°
2026-05-01 12:41 15.94042 -22.95630 3487 ft 161 kts 38°
2026-05-01 12:41 15.95013 -22.95069 3423 ft 160 kts 25°
2026-05-01 12:41 15.96040 -22.94617 3313 ft 160 kts 21°
2026-05-01 12:42 15.97082 -22.94224 3140 ft 158 kts 19°
2026-05-01 12:42 15.98124 -22.93868 2985 ft 156 kts 18°
2026-05-01 12:42 15.98809 -22.93643 2855 ft 156 kts 19°
2026-05-01 12:42 15.99843 -22.93307 2685 ft 156 kts 19°
2026-05-01 12:43 16.00874 -22.92975 2532 ft 155 kts 19°
2026-05-01 12:43 16.02289 -22.92522 2222 ft 162 kts 18°
2026-05-01 12:43 16.03337 -22.92186 2007 ft 151 kts 19°
2026-05-01 12:43 16.04262 -22.91890 1846 ft 128 kts 19°
2026-05-01 12:44 16.04803 -22.91717 1721 ft 112 kts 18°
2026-05-01 12:44 16.05534 -22.91481 1585 ft 110 kts 19°
2026-05-01 12:44 16.07022 -22.91005 1288 ft 112 kts 20°
2026-05-01 12:45 16.08495 -22.90534 980 ft 111 kts 20°
2026-05-01 12:45 16.09247 -22.90291 831 ft 115 kts 21°
2026-05-01 12:45 16.10016 -22.90044 711 ft 117 kts 19°
2026-05-01 12:46 16.10768 -22.89799 551 ft 112 kts 15°
2026-05-01 12:46 16.11509 -22.89565 398 ft 111 kts 18°
2026-05-01 12:46 16.12245 -22.89327 256 ft 112 kts 18°
2026-05-01 12:46 16.12975 -22.89097 85 ft 105 kts 17°
2026-05-01 12:47 16.13577 -22.88909 65 ft 62 kts 17°
2026-05-01 12:47 16.13783 -22.88858 62 ft 10 kts 355°
2026-05-01 12:47 16.13809 -22.88843 66 ft 2 kts 73°
2026-05-01 12:47 16.13805 -22.88836 60 ft 0 kts 131°
2026-05-01 12:48 16.13767 -22.88832 67 ft 10 kts 193°
2026-05-01 12:48 16.13666 -22.88877 59 ft 20 kts 203°
2026-05-01 12:48 16.13602 -22.88927 62 ft 6 kts 263°
2026-05-01 12:48 16.13606 -22.88990 63 ft 8 kts 249°
2026-05-01 12:49 16.13555 -22.89019 61 ft 11 kts 194°
2026-05-01 12:49 16.13505 -22.89034 63 ft 2 kts 210°
2026-05-01 12:49 16.13501 -22.89053 61 ft 5 kts 277°
2026-05-01 12:49 16.13516 -22.89108 60 ft 8 kts 287°
2026-05-01 12:50 16.13519 -22.89117 57 ft 0 kts 287°